Location: Bothwell
(42.3833°S, 147.0000°E)
Time: 20:04:08
(UTC+10:00)

Envisat - Pass Details

Date: 01 March 2024
Orbit: 762 x 764 km, 98.3° (Epoch: 22 April)

Event Time Altitude Azimuth Distance (km) Brightness Sun altitude
Exits shadow 05:13:20 12° 243° (WSW) 2,157 5.0 -17.9°
Drops below altitude 10° 05:14:11 10° 234° (SW) 2,327 5.2 -17.8°
Sets 05:17:30 0° 211° (SSW) 3,264 6.2 -17.2°
